TimeEST,TemperatureF,Dew PointF,Humidity,Sea Level PressureIn,VisibilityMPH,Wind Direction,Wind SpeedMPH,Gust SpeedMPH,PrecipitationIn,Events,Conditions,WindDirDegrees,DateUTC
12:53 AM,61.0,57.0,87,29.59,10.0,SSW,11.5,18.4,0.07,Rain,Light Rain,200,2013-11-18 05:53:00
1:15 AM,57.9,54.0,87,29.67,5.0,West,26.5,43.7,0.01,,Mist,270,2013-11-18 06:15:00
1:22 AM,53.1,48.0,83,29.67,1.8,West,16.1,43.7,0.06,Rain,Heavy Rain,270,2013-11-18 06:22:00
1:28 AM,53.1,48.9,86,29.66,3.0,West,11.5,26.5,0.07,Rain,Rain,260,2013-11-18 06:28:00
1:53 AM,53.1,48.0,83,29.65,10.0,SSW,8.1,-,0.08,,Overcast,210,2013-11-18 06:53:00
2:53 AM,52.0,46.9,83,29.64,10.0,SW,3.5,-,0.01,Rain,Light Rain,230,2013-11-18 07:53:00
3:53 AM,52.0,48.0,86,29.65,10.0,SW,3.5,-,0.00,,Partly Cloudy,230,2013-11-18 08:53:00
4:53 AM,48.9,45.0,86,29.67,10.0,SSW,3.5,-,N/A,,Clear,210,2013-11-18 09:53:00
5:53 AM,45.0,42.1,90,29.68,10.0,SW,4.6,-,N/A,,Clear,220,2013-11-18 10:53:00
6:53 AM,48.0,37.9,68,29.70,10.0,West,6.9,-,N/A,,Clear,270,2013-11-18 11:53:00
7:53 AM,51.1,39.0,63,29.71,10.0,West,9.2,-,N/A,,Clear,270,2013-11-18 12:53:00
8:53 AM,54.0,39.0,57,29.73,10.0,West,13.8,20.7,N/A,,Clear,270,2013-11-18 13:53:00
9:53 AM,55.9,37.9,51,29.74,10.0,WSW,8.1,20.7,N/A,,Clear,250,2013-11-18 14:53:00
10:53 AM,57.9,36.0,44,29.74,10.0,WSW,8.1,27.6,N/A,,Clear,250,2013-11-18 15:53:00
11:53 AM,60.1,35.1,39,29.72,10.0,Variable,6.9,18.4,N/A,,Clear,0,2013-11-18 16:53:00
12:53 PM,61.0,33.1,35,29.70,10.0,Variable,6.9,20.7,N/A,,Clear,0,2013-11-18 17:53:00
1:53 PM,60.1,32.0,35,29.69,10.0,WSW,6.9,-,N/A,,Clear,250,2013-11-18 18:53:00
2:53 PM,60.1,30.0,32,29.70,10.0,West,8.1,20.7,N/A,,Clear,260,2013-11-18 19:53:00
3:53 PM,57.9,28.0,32,29.71,10.0,Variable,6.9,-,N/A,,Mostly Cloudy,0,2013-11-18 20:53:00
4:53 PM,55.0,27.0,34,29.75,10.0,West,6.9,18.4,N/A,,Clear,270,2013-11-18 21:53:00
5:53 PM,53.1,27.0,37,29.78,10.0,WNW,10.4,20.7,N/A,,Clear,290,2013-11-18 22:53:00
6:53 PM,52.0,27.0,38,29.81,10.0,West,11.5,19.6,N/A,,Mostly Cloudy,270,2013-11-18 23:53:00
7:53 PM,51.1,27.0,39,29.84,10.0,WNW,10.4,21.9,N/A,,Overcast,290,2013-11-19 00:53:00
8:53 PM,48.0,26.1,42,29.87,10.0,West,9.2,18.4,N/A,,Clear,270,2013-11-19 01:53:00
9:53 PM,46.9,26.1,44,29.89,10.0,WSW,8.1,23.0,N/A,,Overcast,250,2013-11-19 02:53:00
10:53 PM,46.9,27.0,46,29.91,10.0,West,9.2,20.7,N/A,,Overcast,260,2013-11-19 03:53:00
11:53 PM,46.0,27.0,47,29.93,10.0,West,13.8,21.9,N/A,,Overcast,280,2013-11-19 04:53:00